User: anonymous   Login
Location: Oshawa
(43.9000°N, 78.8670°W)
Time: 23:19:13
(UTC-04:00)
Language:

Cosmos 1821 Rocket - Orbit

View from above orbital plane
View from above orbital plane
View from above satellite
View from above satellite

Ground track
Ground track

The orbit data is extracted from the following two-line orbital elements,

1 17526U 87017B   17118.91412228 -.00000002 +00000-0 -18307-4 0  9998
2 17526 082.9019 077.0508 0041712 094.6696 265.9227 13.76801330499315
Epoch (UTC): 28 April 2017 21:56:20
Eccentricity: 0.0041712
inclination: 82.9019°
perigee height: 944 km
apogee height: 1006 km
right ascension of ascending node: 77.0508°
argument of perigee: 94.6696°
revolutions per day: 13.76801330
mean anomaly at epoch: 265.9227°
orbit number at epoch: 49931

The dashed part of the orbit path shows where the satellite is in the earth's shadow,  

DLR